Regional Weather Roundup
Issued by NWS Jackson, KY

Home | Current Version | Previous Version | Graphics & Text | Print | Product List | Glossary On
Versions: 1 2 3 4 5 6 7 8 9 10 11 12 13 14 15 16 17 18 19 20 21 22 23 24 25 26 27 28 29 30 31 32 33 34 35 36 37 38 39 40 41 42 43 44 45 46 47 48 49 50
000
ASUS43 KJKL 291611
RWRJKL

EAST KENTUCKY HOURLY WEATHER ROUNDUP
NATIONAL WEATHER SERVICE JACKSON KY
1100 AM EST THU JAN 29 2015

NOTE: "FAIR" INDICATES FEW OR NO CLOUDS BELOW 12,000 FEET WITH
NO SIGNIFICANT WEATHER AND/OR OBSTRUCTIONS TO VISIBILITY.

* THESE REPORTS ARE NOT UNDER NWS QUALITY CONTROL AND MAY NOT
  REPORT WEATHER SUCH AS PRECIPITATION AND FOG.

KYZ079-080-083-085-087-088-110-112-115-119-120-291700
...EASTERN KENTUCKY...

CITY           SKY/WX    TMP DP  RH WIND       PRES   REMARKS
JACKSON        CLOUDY    41  33  73 VRB7      29.99S
LONDON         CLOUDY    44  35  70 S10       30.02F
SOMERSET*      MOSUNNY   45  32  61 S14G21    30.03F
MONTICELLO*    MOSUNNY   54  38  54 S17G26    30.05F
MIDDLESBORO*   RAIN      40  29  65 SW10G23   30.12F WCI  34
HARLAN APT*    CLOUDY    37  34  87 E5        30.10S WCI  34
HAZARD APT*    CLOUDY    43  36  75 SW10G26   30.01
BLACK MTN*       N/A     30  25  80 SW13        N/A  WCI  20
PIKEVILLE APT* LGT RAIN  43  32  65 S12G18    30.00F
BIG SANDY*     LGT RAIN  41  33  75 SW8       30.00R
MOREHEAD APT*  CLOUDY    45  32  61 S10G17    29.96F
$$

KYZ035-036-041-042-044-050-067-078-099-291700
...CENTRAL KENTUCKY...

CITY           SKY/WX    TMP DP  RH WIND       PRES   REMARKS
MT STERLING*   MOSUNNY   46  34  61 SW22G33   29.95F
FLEMING/MASON* MOSUNNY   46  35  67 SW17G24   29.91F
DANVILLE*      MOSUNNY   48  36  61 SW17G25   29.96S
RICHMOND*      MOSUNNY   48  34  57 SW23G35   29.96S
LEXINGTON      MOSUNNY   50  37  61 S18G25    29.93S
FRANKFORT      CLOUDY    49  35  58 SW18G28   29.90F
$$

KYZ091>093-OHZ055-061-077-WVZ005-015-034-035-042-291700
...SOUTHERN OHIO/WEST VIRGINIA...

CITY           SKY/WX    TMP DP  RH WIND       PRES   REMARKS
COVINGTON      PTSUNNY   48  35  60 SW18G28   29.84F
COLUMBUS       LGT RAIN  34  29  82 S13G18    29.85F WCI  25
DAYTON         PTSUNNY   41  33  73 S16       29.80S
WILMINGTON     PTSUNNY   43  33  68 SW17G28   29.82F
HUNTINGTON     LGT RAIN  36  29  75 S10       29.95S WCI  28
CHARLESTON     LGT RAIN  40  28  62 S7        29.97F
PINEVILLE*     CLOUDY    38  30  73 MISG      30.09F
BECKLEY        PTSUNNY   38  16  40 SE15G22   30.03F WCI  29
BLUEFIELD      MOSUNNY   45  15  30 VRB7      30.06F
$$

VAZ002-007-008-TNZ017-027-036-066-071-291700
...SOUTHWEST VIRGINIA/EAST TENNESSEE...

CITY           SKY/WX    TMP DP  RH WIND       PRES   REMARKS
WISE*          RAIN      39  23  52 SW16G28   30.08F WCI  30
JONESVILLE*    LGT RAIN  32  28  86 CALM      30.17F
ABINGDON*      CLOUDY    40  21  46 CALM      30.12F
BRISTOL        CLOUDY    35  25  66 CALM      30.15F
KNOXVILLE      LGT RAIN  34  28  79 CALM      30.17F
OAK RIDGE      LGT RAIN  38  31  76 VRB6      30.18F WCI  33
CROSSVILLE     CLOUDY    43  31  62 S13G25    30.11S
NASHVILLE      MOSUNNY   57  35  43 SW16G29   30.05S
$$

...KEY TO REMARKS...
VSB - VISIBILITY IN MILES
WCI - WIND CHILL INDEX
HX  - HEAT INDEX

$$


USA.gov is the U.S. government's official web portal to all federal, state and local government web resources and services.